FW4581 Weather Reports


time (UTC)temp
F
wind
direction
speed
knots
gust
knots
rain 1hr
in
rain 24hr
in
rain mn
in
humidity
%
barometer
mb
20260503200042 69 54 2.6 7.0 0.00 0.00 0.00 44 1017.9
20260503194539 69 159 0.9 5.2 0.00 0.00 0.00 49 1018.2
20260503193038 69 286 0.9 6.1 0.00 0.00 0.00 46 1018.3
20260503191537 69 176 1.7 7.0 0.00 0.00 0.00 46 1018.8
20260503190035 68 265 1.7 5.2 0.00 0.00 0.00 49 1018.9
20260503184551 68 167 1.7 7.8 0.00 0.00 0.00 51 1019.4
20260503183034 67 122 0.9 7.0 0.00 0.00 0.00 54 1019.4
20260503181534 68 134 1.7 5.2 0.00 0.00 0.00 43 1019.5
20260503180036 67 207 1.7 7.0 0.00 0.00 0.00 48 1019.6
20260503174532 68 298 0.0 7.0 0.00 0.00 0.00 53 1019.6
20260503173033 65 246 1.7 3.5 0.00 0.00 0.00 51 1019.8
20260503171524 65 252 2.6 7.8 0.00 0.00 0.00 52 1020.1
20260503081602 46 290 0.0 0.0 0.00 0.26 0.16 94 1017.6
20260503080109 46 290 0.0 0.0 0.00 0.28 0.16 94 1017.4
20260503071605 48 290 0.0 0.0 0.00 0.28 0.16 94 1017.0
20260503054556 49 290 0.0 0.0 0.00 0.28 0.16 94 1016.8
20260503053043 49 290 0.0 0.0 0.00 0.28 0.16 94 1016.7
20260503051542 50 290 0.0 0.0 0.00 0.28 0.16 94 1016.6
20260503050045 50 290 0.0 0.0 0.00 0.28 0.16 94 1016.5
20260503044548 51 290 0.0 0.0 0.00 0.28 0.16 94 1016.3
20260503043044 52 290 0.0 0.0 0.00 0.28 0.16 94 1016.3
20260503041534 52 290 0.0 0.0 0.00 0.28 0.16 94 1016.2
20260503040038 53 290 0.0 0.9 0.00 0.28 0.16 94 1016.3
20260503034533 53 290 0.0 0.9 0.00 0.28 0.16 94 1016.1
20260503033032 53 291 0.0 2.6 0.00 0.28 0.16 94 1016.0
20260503031533 53 155 0.9 2.6 0.00 0.28 0.16 94 1015.7
20260503030030 53 188 0.0 1.7 0.00 0.28 0.16 94 1015.8
20260503024530 53 150 0.9 2.6 0.00 0.28 0.16 94 1015.5
20260503023029 53 221 0.0 0.0 0.00 0.28 0.16 94 1015.8
20260503021527 53 230 0.0 0.0 0.00 0.28 0.16 94 1015.4
20260503020025 52 230 0.0 0.0 0.00 0.28 0.16 94 1015.1
20260503014522 52 230 0.0 0.0 0.00 0.28 0.16 93 1014.6
20260503013023 53 230 0.0 0.0 0.00 0.28 0.16 93 1014.3
20260503011523 52 230 0.0 0.0 0.00 0.28 0.16 93 1013.8
20260503010026 52 230 0.0 0.0 0.00 0.28 0.16 93 1013.8
20260503004517 53 230 0.0 0.0 0.00 0.28 0.16 92 1013.6
20260503003016 53 230 0.0 0.0 0.00 0.28 0.16 92 1013.4
20260503001515 54 230 0.0 0.0 0.00 0.28 0.16 91 1013.2
20260503000028 55 230 0.0 0.0 0.00 0.28 0.16 91 1013.1
20260502234513 56 230 0.0 0.0 0.00 0.28 0.16 91 1013.0
20260502233012 56 230 0.0 0.0 0.00 0.28 0.16 90 1012.7
20260502231513 57 53 0.0 0.0 0.00 0.28 0.16 89 1012.6
20260502230013 58 30 0.0 0.0 0.00 0.28 0.16 87 1012.3
20260502224512 58 30 0.0 0.9 0.00 0.28 0.16 85 1012.4
20260502223025 59 109 0.0 1.7 0.00 0.28 0.16 84 1012.4
20260502221511 58 146 0.0 2.6 0.00 0.28 0.16 85 1012.6
20260502220011 58 355 0.0 2.6 0.00 0.28 0.16 86 1012.7
20260502214510 58 56 0.0 4.3 0.00 0.28 0.16 87 1012.4
20260502213008 58 69 0.0 2.6 0.00 0.28 0.16 87 1012.3
20260502211508 58 342 0.0 2.6 0.00 0.28 0.16 88 1012.2
20260502210006 57 88 0.0 1.7 0.00 0.28 0.16 88 1012.2
20260502204505 57 71 0.9 2.6 0.00 0.28 0.16 89 1012.3
20260502203005 56 142 0.0 2.6 0.00 0.28 0.16 90 1012.2